CAPE
818 835 387 197 141 67 30 3 0 0 0 0 0 0 0 0 0 8 1 0 1 8 3 0 0 0 0 0 0 0 0 0
477 765 412 227 120 62 19 0 0 0 0 0 0 0 0 0 0 1 2 3 4 9 0 0 0 0 0 0 0 0 0 0
386 568 538 296 168 85 32 9 0 0 0 0 0 0 0 0 0 0 0 1 2 4 0 0 0 0 0 0 0 0 0 0
382 333 256 292 242 107 18 12 0 0 0 0 0 0 0 0 0 3 6 1 1 0 0 0 0 0 0 0 0 0 0 0
243 243 227 218 280 276 86 31 4 0 8 27 0 0 0 0 2 42 11 3 1 0 0 0 0 0 0 0 0 0 0 0
68 241 228 197 215 304 235 142 89 59 28 31 10 1 0 0 0 0 0 1 1 0 0 0 0 0 0 0 0 0 0 0
0 7 238 151 104 127 99 260 167 118 87 29 24 8 0 0 0 0 0 0 1 0 0 0 0 0 0 0 0 0 0 0
0 0 0 32 0 0 0 181 267 164 70 35 21 21 0 0 0 0 0 0 0 0 0 0 0 0 0 0 0 0 0 0
0 0 0 7 10 57 0 83 186 165 76 45 14 9 0 0 0 0 0 0 0 0 0 0 0 0 0 0 0 0 0 0
0 0 4 28 32 162 179 271 219 146 53 19 15 0 0 0 0 0 0 0 0 0 0 0 0 0 0 0 0 0 0 0
0 0 82 179 91 152 258 233 208 199 100 27 0 0 0 0 0 0 0 0 0 0 0 0 0 0 0 0 0 0 0 0
0 0 55 279 312 199 108 142 180 35 59 33 1 0 0 0 0 0 0 0 0 0 0 0 0 0 0 0 0 0 0 0
0 0 88 357 488 364 197 91 164 162 87 18 0 0 0 0 0 0 0 0 0 0 0 0 0 0 0 0 0 0 0 0
3 150 355 426 422 375 307 296 230 169 145 42 0 0 0 0 0 0 0 0 0 0 0 0 0 0 0 0 0 0 0 0
6 318 342 398 414 476 367 292 263 154 78 15 0 0 0 0 0 0 0 0 0 0 0 0 0 0 0 0 0 0 0 0
6 5 352 495 365 419 368 259 39 66 40 0 0 0 0 0 0 0 0 0 0 0 0 0 0 0 0 0 0 0 0 0
9 6 3 183 481 425 284 217 28 35 16 2 1 0 0 0 0 0 0 0 0 0 0 0 0 0 0 0 0 0 0 0
14 12 8 5 5 68 237 82 86 73 31 2 0 1 0 0 0 0 0 0 0 0 0 0 0 0 0 0 0 0 0 0
11 15 8 5 5 1 15 109 57 86 13 0 0 0 0 0 0 0 0 0 0 0 0 0 0 0 0 0 0 0 0 0
CIN
-112 -88 -183 -211 -186 -167 -133 -118 -0 -0 -0 -0 -0 -0 -0 -0 -0 -155 -0 -2 -7 -6 -1 -0 -0 -0 -0 -0 -0 -0 -0 -0
-143 -77 -175 -176 -194 -168 -143 -0 -0 -0 -0 -0 -0 -0 -0 -0 -0 -12 -0 -0 -0 -3 -0 -0 -0 -0 -0 -0 -0 -0 -0 -0
-128 -80 -59 -116 -164 -202 -168 -143 -0 -0 -0 -0 -0 -0 -0 -0 -0 -0 -0 -0 -0 -0 -0 -0 -0 -0 -0 -0 -0 -0 -0 -0
-96 -95 -98 -107 -123 -167 -216 -190 -0 -0 -0 -0 -0 -0 -0 -0 -0 -0 -36 -0 -0 -0 -0 -0 -0 -0 -0 -0 -0 -0 -0 -0
-120 -126 -97 -106 -108 -147 -184 -145 -147 -0 -221 -71 -0 -0 -0 -0 -102 -83 -127 -66 -0 -0 -0 -0 -0 -0 -0 -0 -0 -0 -0 -0
-191 -135 -149 -155 -134 -107 -133 -112 -91 -130 -179 -148 -176 -20 -0 -0 -0 -0 -0 -49 -0 -0 -0 -0 -0 -0 -0 -0 -0 -0 -0 -0
-0 -110 -174 -183 -202 -133 -165 -74 -113 -80 -138 -159 -159 -181 -0 -0 -0 -0 -0 -0 -0 -0 -0 -0 -0 -0 -0 -0 -0 -0 -0 -0
-0 -0 -0 -242 -0 -0 -0 -138 -71 -97 -149 -148 -204 -91 -0 -0 -0 -0 -0 -0 -0 -0 -0 -0 -0 -0 -0 -0 -0 -0 -0 -0
-0 -0 -0 -236 -160 -255 -0 -239 -129 -127 -183 -177 -156 -131 -0 -92 -0 -0 -0 -0 -0 -0 -0 -0 -0 -0 -0 -0 -0 -0 -0 -0
-0 -0 -45 -399 -328 -143 -164 -170 -199 -193 -257 -98 -108 -1 -0 -0 -0 -0 -0 -0 -0 -0 -0 -0 -0 -0 -0 -0 -0 -0 -0 -0
-0 -0 -293 -250 -325 -264 -164 -185 -217 -228 -155 -94 -0 -0 -0 -52 -0 -0 -0 -0 -0 -0 -0 -0 -0 -0 -0 -0 -0 -0 -0 -0
-0 -0 -380 -217 -228 -263 -338 -242 -192 -303 -131 -91 -20 -0 -0 -0 -0 -0 -0 -0 -0 -0 -0 -0 -0 -0 -0 -0 -0 -0 -0 -0
-0 -0 -411 -158 -114 -140 -193 -282 -173 -155 -99 -174 -0 -0 -0 -0 -0 -0 -0 -0 -0 -0 -0 -0 -0 -0 -0 -0 -0 -0 -0 -0
-114 -342 -171 -115 -123 -145 -170 -158 -171 -152 -131 -88 -11 -0 -0 -0 -0 -0 -0 -0 -0 -0 -0 -0 -0 -0 -0 -0 -0 -0 -0 -0
-86 -123 -121 -101 -94 -68 -123 -109 -106 -127 -111 -83 -0 -0 -0 -0 -0 -0 -0 -0 -0 -0 -0 -0 -0 -0 -0 -0 -0 -0 -0 -0
-0 -0 -98 -65 -76 -29 -27 -36 -180 -145 -134 -33 -0 -0 -0 -0 -0 -0 -0 -0 -0 -0 -0 -0 -0 -0 -0 -0 -0 -0 -0 -0
-0 -0 -0 -150 -24 -13 -20 -24 -132 -133 -169 -0 -0 -0 -0 -0 -0 -0 -0 -0 -0 -0 -0 -0 -0 -0 -0 -0 -0 -0 -0 -0
-0 -0 -0 -0 -0 -96 -4 -69 -61 -107 -118 -0 -0 -0 -0 -0 -0 -0 -0 -0 -0 -0 -0 -0 -0 -0 -0 -0 -0 -0 -0 -0
-0 -0 -0 -0 -0 -0 -49 -14 -42 -37 -103 -0 -0 -0 -0 -0 -0 -0 -0 -0 -0 -0 -0 -0 -0 -0 -0 -0 -0 -0 -0 -0
Wind_Speed
14 19 21 20 17 16 16 10 11 8 6 5 4 5 4 4 7 8 12 9 11 10 9 9 8 8 9 9 9 5 8 8
8 13 19 19 18 18 18 16 12 9 6 6 6 8 6 5 7 10 12 11 13 12 9 10 9 9 10 12 10 12 4 6
8 10 14 19 21 22 21 19 16 10 7 6 4 7 5 7 7 8 13 12 14 12 12 11 11 9 11 12 13 6 3 7
12 13 14 19 22 23 22 21 17 14 7 4 3 4 3 3 6 8 10 13 15 13 12 11 11 10 11 12 11 9 9 4
13 18 17 16 20 20 20 18 18 18 23 11 13 10 10 8 7 8 9 13 15 14 12 12 12 9 11 11 10 7 10 8
14 18 21 18 16 17 21 23 21 21 20 22 16 12 8 4 6 8 11 9 13 14 13 13 11 10 12 13 9 8 9 6
12 16 18 18 14 14 14 21 21 18 16 16 16 20 12 9 10 9 8 8 8 12 13 13 12 11 12 11 11 12 11 6
11 13 15 16 17 13 14 16 18 18 18 19 18 17 16 17 15 12 10 8 7 11 13 12 11 11 12 11 12 10 10 8
11 15 16 18 20 22 21 20 18 18 15 16 16 21 13 13 15 12 10 11 10 12 12 12 12 12 11 11 9 9 8 8
13 14 15 18 19 19 22 22 21 20 22 18 15 12 16 15 16 13 12 10 9 12 13 13 13 13 13 12 9 10 8 7
18 14 17 16 18 19 18 19 21 17 18 17 17 16 16 15 15 15 13 11 12 13 13 13 13 13 12 13 9 8 11 6
23 15 17 17 18 18 20 17 17 15 16 15 17 16 15 13 15 14 15 14 14 14 15 14 14 14 12 12 11 11 12 9
17 13 15 15 17 17 19 18 17 16 16 12 14 13 13 14 14 14 14 15 14 14 14 14 13 13 13 14 13 12 13 11
5 6 11 15 15 17 19 19 18 15 14 15 14 14 14 16 15 15 14 14 14 12 13 14 14 13 13 12 13 12 11 11
19 2 7 9 11 14 16 16 15 16 15 16 17 18 18 17 15 14 15 14 15 14 13 14 13 13 13 12 12 11 10 9
19 16 4 8 11 11 11 13 13 15 16 17 19 19 17 15 14 15 13 14 14 14 13 12 12 12 10 12 11 11 11 8
19 18 17 9 7 11 13 11 12 13 13 15 14 16 16 15 13 14 14 13 13 13 13 13 12 9 13 15 13 11 10 11
19 17 15 15 11 3 8 13 12 13 15 13 12 14 15 15 14 12 14 14 12 13 12 12 12 9 16 17 15 9 10 10
17 14 14 14 13 11 5 6 12 12 14 14 13 15 16 14 15 15 13 12 14 14 12 12 10 8 16 16 15 9 7 9
Wind_Direction
197 189 178 179 181 180 171 175 171 151 137 134 129 150 178 165 181 172 168 175 165 159 153 146 143 139 138 134 128 121 131 131
188 198 178 175 173 174 179 174 171 159 154 164 174 181 181 185 186 181 174 173 170 171 151 149 151 153 148 141 131 131 96 119
187 180 185 180 176 180 182 184 165 158 174 175 167 184 189 188 188 187 184 173 172 173 159 159 155 141 143 148 150 134 96 168
200 191 191 191 188 183 181 183 172 155 167 163 115 102 69 133 186 190 190 181 176 172 164 161 154 152 158 158 156 149 156 203
204 200 193 198 198 186 183 179 178 181 166 188 192 193 195 196 189 192 189 181 176 170 164 161 159 156 160 164 164 157 157 172
204 203 202 203 198 192 183 178 184 186 192 179 177 195 194 157 160 181 188 176 177 169 164 160 164 162 165 165 158 159 170 158
211 208 204 203 194 191 187 182 180 184 185 180 184 187 185 166 165 179 185 181 170 169 166 167 167 163 164 171 169 168 174 173
217 204 197 193 188 180 188 177 181 186 185 185 178 202 183 181 172 180 169 180 183 172 170 169 174 171 170 171 169 175 177 180
250 216 199 190 193 186 187 184 181 186 182 203 199 190 191 189 178 179 179 185 181 170 176 175 173 169 168 174 178 181 181 189
281 238 209 194 191 186 181 181 187 189 187 187 184 184 192 190 178 180 177 174 172 170 173 174 173 172 170 173 179 181 177 188
282 246 215 200 193 185 182 181 178 186 193 191 185 180 190 196 174 173 175 180 169 170 170 174 173 176 174 176 178 180 186 187
273 239 215 199 195 185 184 183 182 175 186 184 189 184 182 186 186 169 174 174 171 174 176 175 175 175 177 182 183 177 187 180
247 212 208 188 198 193 189 185 183 179 181 166 187 173 175 191 192 178 169 178 176 175 178 178 176 178 176 184 181 183 185 181
269 184 194 192 195 196 196 186 183 177 165 179 180 181 182 193 193 180 174 171 171 174 174 178 179 180 180 186 184 177 180 181
359 107 205 188 199 199 195 188 173 170 173 183 185 184 190 196 194 181 175 171 168 175 180 181 180 178 181 176 174 175 179 181
351 352 248 175 187 189 187 176 175 170 177 187 183 181 190 188 187 180 169 174 177 174 173 179 175 176 179 174 176 173 178 175
346 349 350 3 184 181 184 178 180 182 179 195 182 179 177 177 180 178 165 171 172 173 178 175 177 185 172 169 167 173 174 178
343 348 350 347 350 292 199 178 179 180 190 190 176 174 178 181 176 175 169 175 169 181 179 175 183 182 167 170 164 172 175 182
341 342 353 355 345 341 295 193 186 188 190 190 176 176 179 176 179 180 176 173 177 179 183 182 178 177 167 168 166 158 170 183